| time (UTC) | temp C | wind direction | speed KPH | gust KPH | rain 1hr cm | rain 24hr cm | rain mn cm | humidity % | barometer mb |
| 20260906092805 | 18 | 133 | 1.6 | 3.2 | 0.00 | 0.00 | 0.00 | 93 | 1011.9 |
| 20260906092306 | 19 | 110 | 1.6 | 3.2 | 0.00 | 0.00 | 0.00 | 92 | 1011.9 |
| 20260906091805 | 19 | 210 | 1.6 | 4.8 | 0.00 | 0.00 | 0.00 | 92 | 1011.9 |
| 20260906091305 | 19 | 118 | 1.6 | 8.0 | 0.00 | 0.00 | 0.00 | 92 | 1011.9 |
| 20260906090805 | 19 | 109 | 1.6 | 8.0 | 0.00 | 0.00 | 0.00 | 92 | 1011.9 |
| 20260906090305 | 20 | 124 | 3.2 | 8.0 | 0.00 | 0.00 | 0.00 | 92 | 1011.9 |
| 20260906085804 | 19 | 144 | 1.6 | 9.7 | 0.00 | 0.00 | 0.00 | 92 | 1011.9 |
| 20260906085306 | 19 | 161 | 4.8 | 9.7 | 0.00 | 0.00 | 0.00 | 92 | 1011.9 |
| 20260906084804 | 19 | 140 | 3.2 | 9.7 | 0.00 | 0.00 | 0.00 | 92 | 1011.9 |
| 20260906083805 | 20 | 110 | 3.2 | 12.9 | 0.00 | 0.00 | 0.00 | 91 | 1011.9 |
| 20260906082804 | 19 | 119 | 4.8 | 9.7 | 0.00 | 0.00 | 0.00 | 91 | 1011.9 |
| 20260906082306 | 20 | 92 | 3.2 | 9.7 | 0.00 | 0.00 | 0.00 | 91 | 1011.9 |
| 20260906081804 | 20 | 159 | 3.2 | 11.3 | 0.00 | 0.00 | 0.00 | 91 | 1011.9 |
| 20260906081305 | 20 | 126 | 3.2 | 8.0 | 0.00 | 0.00 | 0.00 | 91 | 1011.9 |
| 20260906080804 | 20 | 135 | 4.8 | 11.3 | 0.00 | 0.00 | 0.00 | 92 | 1011.9 |
| 20260906080304 | 20 | 142 | 4.8 | 9.7 | 0.00 | 0.00 | 0.00 | 92 | 1011.9 |
| 20260906075804 | 20 | 69 | 3.2 | 9.7 | 0.00 | 0.00 | 0.00 | 91 | 1011.9 |
| 20260906075306 | 20 | 163 | 3.2 | 9.7 | 0.00 | 0.00 | 0.00 | 91 | 1011.9 |
| 20260906074805 | 20 | 138 | 3.2 | 8.0 | 0.00 | 0.00 | 0.00 | 91 | 1011.9 |
| 20260906074304 | 20 | 116 | 3.2 | 9.7 | 0.00 | 0.00 | 0.00 | 91 | 1011.9 |
| 20260906073304 | 20 | 160 | 4.8 | 11.3 | 0.00 | 0.00 | 0.00 | 92 | 1011.9 |
| 20260906072805 | 20 | 134 | 4.8 | 9.7 | 0.00 | 0.00 | 0.00 | 92 | 1011.9 |
| 20260906072306 | 20 | 129 | 4.8 | 11.3 | 0.00 | 0.00 | 0.00 | 92 | 1011.9 |
| 20260906071805 | 20 | 114 | 3.2 | 9.7 | 0.00 | 0.00 | 0.00 | 92 | 1011.9 |
| 20260906071305 | 20 | 159 | 1.6 | 8.0 | 0.00 | 0.00 | 0.00 | 93 | 1011.9 |
| 20260906070805 | 20 | 147 | 1.6 | 11.3 | 0.00 | 0.00 | 0.00 | 93 | 1011.9 |
| 20260906070305 | 20 | 141 | 1.6 | 4.8 | 0.00 | 0.00 | 0.00 | 93 | 1011.9 |
| 20260906065804 | 20 | 153 | 1.6 | 8.0 | 0.00 | 0.00 | 0.00 | 92 | 1011.9 |
| 20260906065305 | 20 | 181 | 1.6 | 3.2 | 0.00 | 0.00 | 0.00 | 92 | 1011.9 |
| 20260906064304 | 20 | 128 | 1.6 | 4.8 | 0.00 | 0.00 | 0.00 | 92 | 1011.9 |
| 20260906063804 | 20 | 125 | 3.2 | 8.0 | 0.00 | 0.00 | 0.00 | 91 | 1011.9 |
| 20260906063304 | 20 | 120 | 1.6 | 4.8 | 0.00 | 0.00 | 0.00 | 91 | 1011.9 |
| 20260906062806 | 20 | 115 | 3.2 | 8.0 | 0.00 | 0.00 | 0.00 | 91 | 1011.9 |
| 20260906062306 | 20 | 92 | 3.2 | 4.8 | 0.00 | 0.00 | 0.00 | 91 | 1011.9 |
| 20260906061805 | 20 | 48 | 3.2 | 9.7 | 0.00 | 0.00 | 0.00 | 91 | 1011.9 |
| 20260906061305 | 20 | 142 | 3.2 | 8.0 | 0.00 | 0.00 | 0.00 | 91 | 1011.9 |
| 20260906055805 | 21 | 145 | 1.6 | 4.8 | 0.00 | 0.00 | 0.00 | 90 | 1011.9 |
| 20260906055306 | 20 | 151 | 3.2 | 8.0 | 0.00 | 0.00 | 0.00 | 90 | 1011.9 |
| 20260906054805 | 21 | 160 | 3.2 | 8.0 | 0.00 | 0.00 | 0.00 | 89 | 1011.9 |
| 20260906053805 | 21 | 153 | 3.2 | 8.0 | 0.00 | 0.00 | 0.00 | 87 | 1011.9 |
| 20260906052805 | 21 | 176 | 3.2 | 8.0 | 0.00 | 0.00 | 0.00 | 88 | 1011.9 |
| 20260906052306 | 21 | 137 | 3.2 | 8.0 | 0.00 | 0.00 | 0.00 | 89 | 1011.9 |
| 20260906051805 | 21 | 131 | 3.2 | 8.0 | 0.00 | 0.00 | 0.00 | 87 | 1011.9 |
| 20260906051306 | 21 | 134 | 3.2 | 8.0 | 0.00 | 0.00 | 0.00 | 88 | 1011.9 |
| 20260906045805 | 21 | 176 | 4.8 | 11.3 | 0.00 | 0.00 | 0.00 | 85 | 1011.9 |
| 20260906044806 | 21 | 141 | 4.8 | 11.3 | 0.00 | 0.00 | 0.00 | 86 | 1011.9 |
| 20260906044305 | 21 | 166 | 4.8 | 11.3 | 0.00 | 0.00 | 0.00 | 85 | 1011.9 |
| 20260906042806 | 21 | 170 | 3.2 | 8.0 | 0.00 | 0.00 | 0.00 | 85 | 1011.9 |
| 20260906041805 | 21 | 146 | 3.2 | 12.9 | 0.00 | 0.00 | 0.00 | 84 | 1011.9 |
| 20260906041305 | 21 | 193 | 3.2 | 9.7 | 0.00 | 0.00 | 0.00 | 85 | 1011.9 |
| 20260906040806 | 21 | 76 | 3.2 | 8.0 | 0.00 | 0.00 | 0.00 | 85 | 1011.9 |
| 20260906040306 | 21 | 150 | 4.8 | 11.3 | 0.00 | 0.00 | 0.00 | 88 | 1011.9 |
| 20260906035805 | 21 | 149 | 3.2 | 11.3 | 0.00 | 0.00 | 0.00 | 87 | 1011.9 |
| 20260906034306 | 21 | 174 | 3.2 | 8.0 | 0.00 | 0.00 | 0.00 | 87 | 1011.9 |
| 20260906033805 | 21 | 131 | 3.2 | 9.7 | 0.00 | 0.00 | 0.00 | 89 | 1011.9 |
| 20260906033306 | 21 | 140 | 3.2 | 8.0 | 0.00 | 0.00 | 0.00 | 89 | 1011.9 |
| 20260906032805 | 21 | 92 | 1.6 | 3.2 | 0.00 | 0.00 | 0.00 | 89 | 1011.9 |
| 20260906032306 | 21 | 178 | 1.6 | 8.0 | 0.00 | 0.00 | 0.00 | 88 | 1011.9 |
| 20260906031805 | 21 | 153 | 3.2 | 8.0 | 0.00 | 0.00 | 0.00 | 88 | 1011.9 |
| 20260906031306 | 21 | 151 | 3.2 | 4.8 | 0.00 | 0.00 | 0.00 | 88 | 1011.9 |
| 20260906030305 | 21 | 175 | 1.6 | 4.8 | 0.00 | 0.00 | 0.00 | 88 | 1011.9 |
| 20260906025306 | 21 | 139 | 1.6 | 3.2 | 0.00 | 0.00 | 0.00 | 85 | 1011.9 |
| 20260906024805 | 21 | 152 | 1.6 | 4.8 | 0.00 | 0.00 | 0.00 | 85 | 1011.9 |
| 20260906024305 | 21 | 157 | 3.2 | 4.8 | 0.00 | 0.00 | 0.00 | 87 | 1011.9 |
| 20260906023805 | 21 | 123 | 3.2 | 8.0 | 0.00 | 0.00 | 0.00 | 85 | 1011.9 |
| 20260906022805 | 22 | 141 | 3.2 | 8.0 | 0.00 | 0.00 | 0.00 | 84 | 1011.9 |
| 20260906022307 | 22 | 140 | 3.2 | 4.8 | 0.00 | 0.00 | 0.00 | 87 | 1011.9 |
| 20260906021305 | 22 | 163 | 3.2 | 9.7 | 0.00 | 0.00 | 0.00 | 83 | 1011.9 |
| 20260906020305 | 22 | 176 | 3.2 | 8.0 | 0.00 | 0.00 | 0.00 | 84 | 1011.9 |
| 20260906015805 | 22 | 178 | 3.2 | 9.7 | 0.00 | 0.00 | 0.00 | 84 | 1011.9 |
| 20260906015306 | 22 | 152 | 4.8 | 8.0 | 0.00 | 0.00 | 0.00 | 85 | 1011.9 |
| 20260906014806 | 22 | 191 | 3.2 | 8.0 | 0.00 | 0.00 | 0.00 | 85 | 1011.9 |
| 20260906014305 | 22 | 171 | 3.2 | 4.8 | 0.00 | 0.00 | 0.00 | 85 | 1011.9 |
| 20260906013805 | 22 | 167 | 3.2 | 8.0 | 0.00 | 0.00 | 0.00 | 85 | 1011.9 |
| 20260906013305 | 22 | 126 | 3.2 | 9.7 | 0.00 | 0.00 | 0.00 | 85 | 1011.9 |
| 20260906012805 | 22 | 159 | 3.2 | 4.8 | 0.00 | 0.00 | 0.00 | 86 | 1011.9 |
| 20260906012306 | 22 | 98 | 3.2 | 4.8 | 0.00 | 0.00 | 0.00 | 86 | 1011.9 |
| 20260906011805 | 23 | 156 | 3.2 | 8.0 | 0.00 | 0.00 | 0.00 | 85 | 1011.9 |
| 20260906010805 | 23 | 93 | 3.2 | 9.7 | 0.00 | 0.00 | 0.00 | 83 | 1011.9 |
| 20260906010305 | 23 | 96 | 3.2 | 9.7 | 0.00 | 0.00 | 0.00 | 82 | 1011.9 |
| 20260906005306 | 23 | 77 | 3.2 | 11.3 | 0.00 | 0.00 | 0.00 | 82 | 1011.9 |
| 20260906004805 | 23 | 24 | 3.2 | 11.3 | 0.00 | 0.00 | 0.00 | 81 | 1011.9 |
| 20260906004305 | 23 | 9 | 3.2 | 11.3 | 0.00 | 0.00 | 0.00 | 81 | 1011.9 |
| 20260906003805 | 23 | 344 | 3.2 | 8.0 | 0.00 | 0.00 | 0.00 | 81 | 1011.9 |
| 20260906003305 | 23 | 63 | 3.2 | 9.7 | 0.00 | 0.00 | 0.00 | 80 | 1011.9 |
| 20260906002805 | 23 | 87 | 3.2 | 9.7 | 0.00 | 0.00 | 0.00 | 80 | 1011.9 |
| 20260906002306 | 23 | 35 | 3.2 | 9.7 | 0.00 | 0.00 | 0.00 | 80 | 1011.9 |
| 20260906001806 | 23 | 77 | 1.6 | 8.0 | 0.00 | 0.00 | 0.00 | 80 | 1011.9 |
| 20260906001305 | 24 | 43 | 1.6 | 8.0 | 0.00 | 0.00 | 0.00 | 79 | 1011.9 |
| 20260906000305 | 24 | 70 | 1.6 | 4.8 | 0.00 | 0.00 | 0.00 | 78 | 1011.9 |
| 20260905235805 | 24 | 84 | 3.2 | 11.3 | 0.00 | 0.00 | 0.00 | 78 | 1011.9 |
| 20260905234805 | 24 | 71 | 3.2 | 8.0 | 0.00 | 0.00 | 0.00 | 77 | 1011.9 |
| 20260905233806 | 25 | 93 | 3.2 | 9.7 | 0.00 | 0.00 | 0.00 | 76 | 1011.9 |
| 20260905233305 | 25 | 89 | 3.2 | 11.3 | 0.00 | 0.00 | 0.00 | 74 | 1011.9 |
| 20260905232805 | 25 | 73 | 1.6 | 3.2 | 0.00 | 0.00 | 0.00 | 76 | 1011.9 |
| 20260905232306 | 25 | 43 | 1.6 | 4.8 | 0.00 | 0.00 | 0.00 | 77 | 1011.9 |
| 20260905231805 | 25 | 133 | 1.6 | 3.2 | 0.00 | 0.00 | 0.00 | 78 | 1011.9 |
| 20260905231306 | 25 | 107 | 1.6 | 8.0 | 0.00 | 0.00 | 0.00 | 77 | 1011.9 |
| 20260905230805 | 25 | 26 | 1.6 | 8.0 | 0.00 | 0.00 | 0.00 | 76 | 1011.9 |
| 20260905225805 | 25 | 180 | 3.2 | 8.0 | 0.00 | 0.00 | 0.00 | 75 | 1011.9 |
| 20260905225306 | 25 | 101 | 1.6 | 4.8 | 0.00 | 0.00 | 0.00 | 75 | 1011.9 |
| 20260905224305 | 26 | 115 | 1.6 | 3.2 | 0.00 | 0.00 | 0.00 | 75 | 1011.9 |
| 20260905223805 | 26 | 84 | 1.6 | 3.2 | 0.00 | 0.00 | 0.00 | 75 | 1011.9 |
| 20260905223305 | 26 | 116 | 1.6 | 4.8 | 0.00 | 0.00 | 0.00 | 73 | 1011.9 |
| 20260905222805 | 25 | 40 | 1.6 | 3.2 | 0.00 | 0.00 | 0.00 | 72 | 1011.9 |
| 20260905222306 | 25 | 76 | 1.6 | 3.2 | 0.00 | 0.00 | 0.00 | 74 | 1011.9 |
| 20260905221810 | 25 | 67 | 1.6 | 3.2 | 0.00 | 0.00 | 0.00 | 71 | 1011.9 |
| 20260905221316 | 25 | 44 | 1.6 | 4.8 | 0.00 | 0.00 | 0.00 | 75 | 1011.9 |
| 20260905220805 | 26 | 21 | 0.0 | 1.6 | 0.00 | 0.00 | 0.00 | 75 | 1011.9 |
| 20260905220305 | 26 | 26 | 0.0 | 3.2 | 0.00 | 0.00 | 0.00 | 73 | 1011.9 |
| 20260905215805 | 26 | 251 | 1.6 | 8.0 | 0.00 | 0.00 | 0.00 | 75 | 1011.9 |
| 20260905215306 | 26 | 342 | 1.6 | 4.8 | 0.00 | 0.00 | 0.00 | 74 | 1011.9 |
| 20260905214805 | 26 | 152 | 0.0 | 1.6 | 0.00 | 0.00 | 0.00 | 72 | 1011.9 |
| 20260905214305 | 26 | 209 | 0.0 | 1.6 | 0.00 | 0.00 | 0.00 | 73 | 1011.9 |
| 20260905213805 | 26 | 142 | 1.6 | 3.2 | 0.00 | 0.00 | 0.00 | 71 | 1011.9 |
| 20260905212306 | 26 | 318 | 1.6 | 1.6 | 0.00 | 0.00 | 0.00 | 72 | 1011.9 |
| 20260905211806 | 26 | 159 | 0.0 | 3.2 | 0.00 | 0.00 | 0.00 | 72 | 1011.9 |
| 20260905211305 | 26 | 325 | 3.2 | 4.8 | 0.00 | 0.00 | 0.00 | 74 | 1011.9 |
| 20260905210805 | 26 | 246 | 0.0 | 3.2 | 0.00 | 0.00 | 0.00 | 75 | 1011.9 |
| 20260905210305 | 26 | 345 | 1.6 | 4.8 | 0.00 | 0.00 | 0.00 | 74 | 1011.9 |
| 20260905205306 | 26 | 258 | 1.6 | 3.2 | 0.00 | 0.00 | 0.00 | 71 | 1011.9 |
| 20260905204805 | 26 | 231 | 3.2 | 9.7 | 0.00 | 0.00 | 0.00 | 73 | 1011.9 |
| 20260905204305 | 26 | 280 | 3.2 | 8.0 | 0.00 | 0.00 | 0.00 | 75 | 1011.9 |
| 20260905203805 | 25 | 238 | 3.2 | 11.3 | 0.00 | 0.00 | 0.00 | 74 | 1011.9 |
| 20260905203305 | 25 | 282 | 3.2 | 9.7 | 0.00 | 0.00 | 0.00 | 74 | 1011.9 |
| 20260905202805 | 25 | 308 | 3.2 | 9.7 | 0.00 | 0.00 | 0.00 | 73 | 1011.9 |
| 20260905202312 | 26 | 264 | 3.2 | 12.9 | 0.00 | 0.00 | 0.00 | 75 | 1011.9 |
| 20260905201805 | 26 | 352 | 1.6 | 8.0 | 0.00 | 0.00 | 0.00 | 74 | 1011.9 |
| 20260905201305 | 25 | 303 | 1.6 | 8.0 | 0.00 | 0.00 | 0.00 | 71 | 1011.9 |
| 20260905200805 | 25 | 239 | 3.2 | 9.7 | 0.00 | 0.00 | 0.00 | 75 | 1011.9 |
| 20260905200305 | 25 | 234 | 4.8 | 11.3 | 0.00 | 0.00 | 0.00 | 76 | 1011.9 |
| 20260905195805 | 25 | 234 | 3.2 | 9.7 | 0.00 | 0.00 | 0.00 | 76 | 1011.9 |
| 20260905195306 | 25 | 293 | 4.8 | 9.7 | 0.00 | 0.00 | 0.00 | 76 | 1011.9 |
| 20260905194805 | 26 | 213 | 4.8 | 9.7 | 0.00 | 0.00 | 0.00 | 72 | 1011.9 |
| 20260905194305 | 26 | 228 | 3.2 | 9.7 | 0.00 | 0.00 | 0.00 | 77 | 1011.9 |
| 20260905193805 | 26 | 256 | 1.6 | 8.0 | 0.00 | 0.00 | 0.00 | 75 | 1011.9 |
| 20260905193305 | 26 | 275 | 3.2 | 9.7 | 0.00 | 0.00 | 0.00 | 73 | 1011.9 |
| 20260905192306 | 26 | 333 | 3.2 | 9.7 | 0.00 | 0.00 | 0.00 | 74 | 1011.9 |
| 20260905191805 | 26 | 319 | 3.2 | 8.0 | 0.00 | 0.00 | 0.00 | 76 | 1011.9 |
| 20260905191305 | 25 | 313 | 3.2 | 8.0 | 0.00 | 0.00 | 0.00 | 76 | 1011.9 |
| 20260905190805 | 25 | 299 | 3.2 | 8.0 | 0.00 | 0.00 | 0.00 | 75 | 1011.9 |
| 20260905190304 | 25 | 266 | 3.2 | 8.0 | 0.00 | 0.00 | 0.00 | 78 | 1011.9 |
| 20260905184805 | 25 | 267 | 0.0 | 3.2 | 0.00 | 0.00 | 0.00 | 79 | 1011.9 |
| 20260905184305 | 25 | 251 | 0.0 | 3.2 | 0.00 | 0.00 | 0.00 | 79 | 1011.9 |
| 20260905181804 | 25 | 255 | 1.6 | 3.2 | 0.00 | 0.00 | 0.00 | 78 | 1011.9 |
| 20260905181305 | 25 | 269 | 0.0 | 3.2 | 0.00 | 0.00 | 0.00 | 80 | 1011.9 |
| 20260905180805 | 25 | 40 | 3.2 | 4.8 | 0.00 | 0.00 | 0.00 | 81 | 1011.9 |
| 20260905180305 | 25 | 30 | 1.6 | 3.2 | 0.00 | 0.00 | 0.00 | 79 | 1011.9 |
| 20260905175805 | 25 | 24 | 1.6 | 3.2 | 0.00 | 0.00 | 0.00 | 80 | 1011.9 |
| 20260905175306 | 25 | 155 | 1.6 | 3.2 | 0.00 | 0.00 | 0.00 | 77 | 1011.9 |
| 20260905174804 | 25 | 106 | 3.2 | 4.8 | 0.00 | 0.00 | 0.00 | 79 | 1011.9 |
| 20260905174305 | 24 | 146 | 3.2 | 4.8 | 0.00 | 0.00 | 0.00 | 80 | 1011.9 |
| 20260905173804 | 24 | 205 | 3.2 | 9.7 | 0.00 | 0.00 | 0.00 | 80 | 1011.9 |
| 20260905173305 | 23 | 150 | 1.6 | 3.2 | 0.00 | 0.00 | 0.00 | 81 | 1011.9 |
| 20260905172804 | 23 | 66 | 3.2 | 8.0 | 0.00 | 0.00 | 0.00 | 78 | 1011.9 |
| 20260905172305 | 23 | 93 | 3.2 | 4.8 | 0.00 | 0.00 | 0.00 | 85 | 1011.9 |
| 20260905171805 | 23 | 167 | 1.6 | 4.8 | 0.00 | 0.00 | 0.00 | 85 | 1011.9 |
| 20260905171305 | 23 | 140 | 1.6 | 4.8 | 0.00 | 0.00 | 0.00 | 87 | 1011.9 |
| 20260905170804 | 22 | 50 | 1.6 | 3.2 | 0.00 | 0.00 | 0.00 | 85 | 1011.9 |
| 20260905170305 | 23 | 79 | 3.2 | 8.0 | 0.00 | 0.00 | 0.00 | 85 | 1011.9 |
| 20260905165804 | 23 | 133 | 1.6 | 8.0 | 0.00 | 0.00 | 0.00 | 86 | 1011.9 |
| 20260905164804 | 23 | 47 | 3.2 | 9.7 | 0.00 | 0.00 | 0.00 | 87 | 1011.9 |
| 20260905164305 | 22 | 351 | 1.6 | 4.8 | 0.00 | 0.00 | 0.00 | 87 | 1011.9 |
| 20260905163305 | 22 | 13 | 1.6 | 3.2 | 0.00 | 0.00 | 0.00 | 88 | 1011.9 |
| 20260905162306 | 22 | 92 | 0.0 | 1.6 | 0.00 | 0.00 | 0.00 | 88 | 1011.9 |
| 20260905161805 | 22 | 126 | 1.6 | 3.2 | 0.00 | 0.00 | 0.00 | 88 | 1011.9 |
| 20260905161305 | 22 | 99 | 1.6 | 4.8 | 0.00 | 0.00 | 0.00 | 88 | 1011.9 |
| 20260905160805 | 22 | 46 | 1.6 | 3.2 | 0.00 | 0.00 | 0.00 | 86 | 1011.9 |
| 20260905160305 | 22 | 354 | 1.6 | 3.2 | 0.00 | 0.00 | 0.00 | 88 | 1011.9 |
| 20260905155804 | 22 | 76 | 1.6 | 8.0 | 0.00 | 0.00 | 0.00 | 89 | 1011.9 |
| 20260905155306 | 22 | 49 | 1.6 | 3.2 | 0.00 | 0.00 | 0.00 | 89 | 1011.9 |
| 20260905154804 | 22 | 90 | 1.6 | 4.8 | 0.00 | 0.00 | 0.00 | 88 | 1011.9 |
| 20260905153804 | 22 | 113 | 3.2 | 4.8 | 0.00 | 0.00 | 0.00 | 88 | 1011.9 |
| 20260905153304 | 22 | 62 | 1.6 | 8.0 | 0.00 | 0.00 | 0.00 | 90 | 1011.9 |
| 20260905152805 | 22 | 56 | 1.6 | 4.8 | 0.00 | 0.00 | 0.00 | 89 | 1011.9 |
| 20260905152306 | 22 | 54 | 3.2 | 8.0 | 0.00 | 0.00 | 0.00 | 88 | 1011.9 |
| 20260905150805 | 22 | 9 | 1.6 | 8.0 | 0.00 | 0.00 | 0.00 | 89 | 1011.9 |
| 20260905150304 | 22 | 86 | 1.6 | 3.2 | 0.00 | 0.00 | 0.00 | 89 | 1011.9 |
| 20260905145306 | 22 | 92 | 3.2 | 11.3 | 0.00 | 0.00 | 0.00 | 90 | 1011.9 |
| 20260905144805 | 22 | 46 | 3.2 | 8.0 | 0.00 | 0.00 | 0.00 | 89 | 1011.9 |
| 20260905144305 | 22 | 33 | 4.8 | 14.5 | 0.00 | 0.00 | 0.00 | 89 | 1011.9 |
| 20260905143805 | 22 | 58 | 1.6 | 4.8 | 0.00 | 0.00 | 0.00 | 90 | 1011.9 |
| 20260905143305 | 22 | 153 | 1.6 | 9.7 | 0.00 | 0.00 | 0.00 | 90 | 1011.9 |
| 20260905142805 | 22 | 43 | 1.6 | 9.7 | 0.00 | 0.00 | 0.00 | 90 | 1011.9 |
| 20260905142306 | 22 | 163 | 4.8 | 8.0 | 0.00 | 0.00 | 0.00 | 90 | 1011.9 |
| 20260905141804 | 22 | 32 | 1.6 | 8.0 | 0.00 | 0.00 | 0.00 | 91 | 1011.9 |
| 20260905141305 | 22 | 120 | 3.2 | 4.8 | 0.00 | 0.00 | 0.00 | 92 | 1011.9 |
| 20260905140804 | 22 | 107 | 3.2 | 11.3 | 0.00 | 0.00 | 0.00 | 91 | 1011.9 |
| 20260905140305 | 22 | 60 | 1.6 | 3.2 | 0.00 | 0.00 | 0.00 | 93 | 1011.9 |
| 20260905135805 | 22 | 87 | 3.2 | 8.0 | 0.00 | 0.00 | 0.00 | 93 | 1011.9 |
| 20260905135307 | 22 | 48 | 1.6 | 3.2 | 0.00 | 0.00 | 0.00 | 95 | 1011.9 |